Year,Month,Day,Hour,Minute,Value (Times are PST for temperature in C)
2017,01,11,00,00,-2.30
2017,01,11,00,01,-2.30
2017,01,11,00,02,-2.30
2017,01,11,00,03,-2.30
2017,01,11,00,04,-2.30
2017,01,11,00,05,-2.30
2017,01,11,00,06,-2.30
2017,01,11,00,07,-2.30
2017,01,11,00,08,-2.40
2017,01,11,00,09,-2.40
2017,01,11,00,10,-2.40
2017,01,11,00,11,-2.40
2017,01,11,00,12,-2.50
2017,01,11,00,13,-2.50
2017,01,11,00,14,-2.40
2017,01,11,00,15,-2.40
2017,01,11,00,16,-2.40
2017,01,11,00,17,-2.40
2017,01,11,00,18,-2.40
2017,01,11,00,19,-2.40
2017,01,11,00,20,-2.40
2017,01,11,00,21,-2.40
2017,01,11,00,22,-2.40
2017,01,11,00,23,-2.40
2017,01,11,00,24,-2.30
2017,01,11,00,25,-2.30
2017,01,11,00,26,-2.30
2017,01,11,00,27,-2.20
2017,01,11,00,28,-2.20
2017,01,11,00,29,-2.20
2017,01,11,00,30,-2.20
2017,01,11,00,31,-2.20
2017,01,11,00,32,-2.20
2017,01,11,00,33,-2.20
2017,01,11,00,34,-2.20
2017,01,11,00,35,-2.30
2017,01,11,00,36,-2.30
2017,01,11,00,37,-2.30
2017,01,11,00,38,-2.30
2017,01,11,00,39,-2.30
2017,01,11,00,40,-2.40
2017,01,11,00,41,-2.40
2017,01,11,00,42,-2.40
2017,01,11,00,43,-2.40
2017,01,11,00,44,-2.30
2017,01,11,00,45,-2.30
2017,01,11,00,46,-2.30
2017,01,11,00,47,-2.40
2017,01,11,00,48,-2.40
2017,01,11,00,49,-2.40
2017,01,11,00,50,-2.50
2017,01,11,00,51,-2.50
2017,01,11,00,52,-2.50
2017,01,11,00,53,-2.50
2017,01,11,00,54,-2.60
2017,01,11,00,55,-2.50
2017,01,11,00,56,-2.50
2017,01,11,00,57,-2.50
2017,01,11,00,58,-2.40
2017,01,11,00,59,-2.40
2017,01,11,01,00,-2.40
2017,01,11,01,01,-2.30
2017,01,11,01,02,-2.30
2017,01,11,01,03,-2.30
2017,01,11,01,04,-2.30
2017,01,11,01,05,-2.20
2017,01,11,01,06,-2.20
2017,01,11,01,07,-2.20
2017,01,11,01,08,-2.20
2017,01,11,01,09,-2.20
2017,01,11,01,10,-2.20
2017,01,11,01,11,-2.20
2017,01,11,01,12,-2.20
2017,01,11,01,13,-2.20
2017,01,11,01,14,-2.20
2017,01,11,01,15,-2.20
2017,01,11,01,16,-2.20
2017,01,11,01,17,-2.20
2017,01,11,01,18,-2.20
2017,01,11,01,19,-2.30
2017,01,11,01,20,-2.30
2017,01,11,01,21,-2.20
2017,01,11,01,22,-2.20
2017,01,11,01,23,-2.20
2017,01,11,01,24,-2.20
2017,01,11,01,25,-2.20
2017,01,11,01,26,-2.20
2017,01,11,01,27,-2.20
2017,01,11,01,28,-2.10
2017,01,11,01,29,-2.10
2017,01,11,01,30,-2.10
2017,01,11,01,31,-2.10
2017,01,11,01,32,-2.10
2017,01,11,01,33,-2.10
2017,01,11,01,34,-2.10
2017,01,11,01,35,-2.10
2017,01,11,01,36,-2.10
2017,01,11,01,37,-2.10
2017,01,11,01,38,-2.10
2017,01,11,01,39,-2.10
2017,01,11,01,40,-2.10
2017,01,11,01,41,-2.10
2017,01,11,01,42,-2.10
2017,01,11,01,43,-2.10
2017,01,11,01,44,-2.00
2017,01,11,01,45,-2.00
2017,01,11,01,46,-2.00
2017,01,11,01,47,-2.00
2017,01,11,01,48,-2.00
2017,01,11,01,49,-2.00
2017,01,11,01,50,-2.00
2017,01,11,01,51,-2.00
2017,01,11,01,52,-2.00
2017,01,11,01,53,-2.00
2017,01,11,01,54,-2.10
2017,01,11,01,55,-2.10
2017,01,11,01,56,-2.10
2017,01,11,01,57,-2.10
2017,01,11,01,58,-2.10
2017,01,11,01,59,-2.10
2017,01,11,02,00,-2.10
2017,01,11,02,01,-2.10
2017,01,11,02,02,-2.10
2017,01,11,02,03,-2.10
2017,01,11,02,04,-2.10
2017,01,11,02,05,-2.10
2017,01,11,02,06,-2.10
2017,01,11,02,07,-2.10
2017,01,11,02,08,-2.10
2017,01,11,02,09,-2.10
2017,01,11,02,10,-2.10
2017,01,11,02,11,-2.10
2017,01,11,02,12,-2.10
2017,01,11,02,13,-2.10
2017,01,11,02,14,-2.20
2017,01,11,02,15,-2.20
2017,01,11,02,16,-2.20
2017,01,11,02,17,-2.20
2017,01,11,02,18,-2.20
2017,01,11,02,19,-2.20
2017,01,11,02,20,-2.20
2017,01,11,02,21,-2.20
2017,01,11,02,22,-2.10
2017,01,11,02,23,-2.10
2017,01,11,02,24,-2.10
2017,01,11,02,25,-2.10
2017,01,11,02,26,-2.10
2017,01,11,02,27,-2.20
2017,01,11,02,28,-2.20
2017,01,11,02,29,-2.20
2017,01,11,02,30,-2.20
2017,01,11,02,31,-2.20
2017,01,11,02,32,-2.20
2017,01,11,02,33,-2.20
2017,01,11,02,34,-2.20
2017,01,11,02,35,-2.20
2017,01,11,02,36,-2.20
2017,01,11,02,37,-2.20
2017,01,11,02,38,-2.10
2017,01,11,02,39,-2.10
2017,01,11,02,40,-2.10
2017,01,11,02,41,-2.00
2017,01,11,02,42,-2.00
2017,01,11,02,43,-2.00
2017,01,11,02,44,-2.10
2017,01,11,02,45,-2.10
2017,01,11,02,46,-2.10
2017,01,11,02,47,-2.10
2017,01,11,02,48,-2.10
2017,01,11,02,49,-2.10
2017,01,11,02,50,-2.00
2017,01,11,02,51,-2.00
2017,01,11,02,52,-1.90
2017,01,11,02,53,-1.90
2017,01,11,02,54,-1.90
2017,01,11,02,55,-1.90
2017,01,11,02,56,-2.00
2017,01,11,02,57,-2.00
2017,01,11,02,58,-2.00
2017,01,11,02,59,-2.00
2017,01,11,03,00,-2.00
2017,01,11,03,01,-2.10
2017,01,11,03,02,-2.00
2017,01,11,03,03,-2.00
2017,01,11,03,04,-2.00
2017,01,11,03,05,-2.00
2017,01,11,03,06,-2.00
2017,01,11,03,07,-2.00
2017,01,11,03,08,-1.90
2017,01,11,03,09,-1.90
2017,01,11,03,10,-1.90
2017,01,11,03,11,-1.90
2017,01,11,03,12,-1.90
2017,01,11,03,13,-1.90
2017,01,11,03,14,-1.90
2017,01,11,03,15,-1.90
2017,01,11,03,16,-1.90
2017,01,11,03,17,-1.90
2017,01,11,03,18,-1.90
2017,01,11,03,19,-1.90
2017,01,11,03,20,-1.90
2017,01,11,03,21,-1.90
2017,01,11,03,22,-1.90
2017,01,11,03,23,-1.90
2017,01,11,03,24,-2.00
2017,01,11,03,25,-2.00
2017,01,11,03,26,-2.00
2017,01,11,03,27,-2.00
2017,01,11,03,28,-2.00
2017,01,11,03,29,-2.00
2017,01,11,03,30,-2.00
2017,01,11,03,31,-2.00
2017,01,11,03,32,-2.00
2017,01,11,03,33,-2.00
2017,01,11,03,34,-2.00
2017,01,11,03,35,-2.10
2017,01,11,03,36,-2.10
2017,01,11,03,37,-2.10
2017,01,11,03,38,-2.10
2017,01,11,03,39,-2.10
2017,01,11,03,40,-2.10
2017,01,11,03,41,-2.10
2017,01,11,03,42,-2.10
2017,01,11,03,43,-2.10
2017,01,11,03,44,-2.10
2017,01,11,03,45,-2.00
2017,01,11,03,46,-2.00
2017,01,11,03,47,-2.00
2017,01,11,03,48,-2.00
2017,01,11,03,49,-1.90
2017,01,11,03,50,-1.90
2017,01,11,03,51,-1.90
2017,01,11,03,52,-1.90
2017,01,11,03,53,-1.90
2017,01,11,03,54,-1.90
2017,01,11,03,55,-2.00
2017,01,11,03,56,-2.00
2017,01,11,03,57,-2.10
2017,01,11,03,58,-2.10
2017,01,11,03,59,-2.10
2017,01,11,04,00,-2.10
2017,01,11,04,01,-2.10
2017,01,11,04,02,-2.10
2017,01,11,04,03,-2.00
2017,01,11,04,04,-2.00
2017,01,11,04,05,-2.00
2017,01,11,04,06,-2.00
2017,01,11,04,07,-2.00
2017,01,11,04,08,-2.00
2017,01,11,04,09,-2.00
2017,01,11,04,10,-2.00
2017,01,11,04,11,-1.90
2017,01,11,04,12,-1.90
2017,01,11,04,13,-1.90
2017,01,11,04,14,-1.90
2017,01,11,04,15,-1.90
2017,01,11,04,16,-1.90
2017,01,11,04,17,-1.90
2017,01,11,04,18,-1.90
2017,01,11,04,19,-1.90
2017,01,11,04,20,-1.90
2017,01,11,04,21,-1.90
2017,01,11,04,22,-1.90
2017,01,11,04,23,-1.90
2017,01,11,04,24,-1.90
2017,01,11,04,25,-1.90
2017,01,11,04,26,-1.90
2017,01,11,04,27,-1.90
2017,01,11,04,28,-1.90
2017,01,11,04,29,-1.80
2017,01,11,04,30,-1.80
2017,01,11,04,31,-1.80
2017,01,11,04,32,-1.90
2017,01,11,04,33,-1.90
2017,01,11,04,34,-1.90
2017,01,11,04,35,-1.90
2017,01,11,04,36,-2.00
2017,01,11,04,37,-2.00
2017,01,11,04,38,-2.00
2017,01,11,04,39,-2.10
2017,01,11,04,40,-2.10
2017,01,11,04,41,-2.20
2017,01,11,04,42,-2.30
2017,01,11,04,43,-2.30
2017,01,11,04,44,-2.40
2017,01,11,04,45,-2.50
2017,01,11,04,46,-2.60
2017,01,11,04,47,-2.70
2017,01,11,04,48,-2.80
2017,01,11,04,49,-2.90
2017,01,11,04,50,-3.00
2017,01,11,04,51,-3.00
2017,01,11,04,52,-3.10
2017,01,11,04,53,-3.20
2017,01,11,04,54,-3.20
2017,01,11,04,55,-3.30
2017,01,11,04,56,-3.30
2017,01,11,04,57,-3.40
2017,01,11,04,58,-3.40
2017,01,11,04,59,-3.50
2017,01,11,05,00,-3.50
2017,01,11,05,01,-3.60
2017,01,11,05,02,-3.60
2017,01,11,05,03,-3.70
2017,01,11,05,04,-3.70
2017,01,11,05,05,-3.80
2017,01,11,05,06,-3.80
2017,01,11,05,07,-3.90
2017,01,11,05,08,-4.00
2017,01,11,05,09,-4.10
2017,01,11,05,10,-4.20
2017,01,11,05,11,-4.30
2017,01,11,05,12,-4.40
2017,01,11,05,13,-4.50
2017,01,11,05,14,-4.60
2017,01,11,05,15,-4.60
2017,01,11,05,16,-4.70
2017,01,11,05,17,-4.80
2017,01,11,05,18,-4.80
2017,01,11,05,19,-4.90
2017,01,11,05,20,-4.90
2017,01,11,05,21,-4.90
2017,01,11,05,22,-5.00
2017,01,11,05,23,-5.00
2017,01,11,05,24,-5.00
2017,01,11,05,25,-5.10
2017,01,11,05,26,-5.10
2017,01,11,05,27,-5.10
2017,01,11,05,28,-5.20
2017,01,11,05,29,-5.20
2017,01,11,05,30,-5.30
2017,01,11,05,31,-5.40
2017,01,11,05,32,-5.40
2017,01,11,05,33,-5.50
2017,01,11,05,34,-5.60
2017,01,11,05,35,-5.70
2017,01,11,05,36,-5.70
2017,01,11,05,37,-5.80
2017,01,11,05,38,-5.80
2017,01,11,05,39,-5.90
2017,01,11,05,40,-5.90
2017,01,11,05,41,-5.90
2017,01,11,05,42,-5.90
2017,01,11,05,43,-5.90
2017,01,11,05,44,-5.90
2017,01,11,05,45,-5.90
2017,01,11,05,46,-5.90
2017,01,11,05,47,-5.90
2017,01,11,05,48,-5.90
2017,01,11,05,49,-5.90
2017,01,11,05,50,-5.90
2017,01,11,05,51,-5.90
2017,01,11,05,52,-6.00
2017,01,11,05,53,-6.00
2017,01,11,05,54,-6.00
2017,01,11,05,55,-6.10
2017,01,11,05,56,-6.10
2017,01,11,05,57,-6.20
2017,01,11,05,58,-6.20
2017,01,11,05,59,-6.30
2017,01,11,06,00,-6.30
2017,01,11,06,01,-6.30
2017,01,11,06,02,-6.30
2017,01,11,06,03,-6.30
2017,01,11,06,04,-6.20
2017,01,11,06,05,-6.20
2017,01,11,06,06,-6.20
2017,01,11,06,07,-6.10
2017,01,11,06,08,-6.10
2017,01,11,06,09,-6.00
2017,01,11,06,10,-6.00
2017,01,11,06,11,-5.90
2017,01,11,06,12,-5.90
2017,01,11,06,13,-5.90
2017,01,11,06,14,-5.90
2017,01,11,06,15,-5.90
2017,01,11,06,16,-5.90
2017,01,11,06,17,-6.00
2017,01,11,06,18,-6.00
2017,01,11,06,19,-6.00
2017,01,11,06,20,-6.00
2017,01,11,06,21,-6.10
2017,01,11,06,22,-6.20
2017,01,11,06,23,-6.30
2017,01,11,06,24,-6.40
2017,01,11,06,25,-6.50
2017,01,11,06,26,-6.60
2017,01,11,06,27,-6.70
2017,01,11,06,28,-6.80
2017,01,11,06,29,-6.90
2017,01,11,06,30,-7.00
2017,01,11,06,31,-7.00
2017,01,11,06,32,-7.10
2017,01,11,06,33,-7.10
2017,01,11,06,34,-7.20
2017,01,11,06,35,-7.20
2017,01,11,06,36,-7.10
2017,01,11,06,37,-7.10
2017,01,11,06,38,-7.10
2017,01,11,06,39,-7.00
2017,01,11,06,40,-7.00
2017,01,11,06,41,-7.10
2017,01,11,06,42,-7.10
2017,01,11,06,43,-7.10
2017,01,11,06,44,-7.20
2017,01,11,06,45,-7.30
2017,01,11,06,46,-7.40
2017,01,11,06,47,-7.50
2017,01,11,06,48,-7.60
2017,01,11,06,49,-7.70
2017,01,11,06,50,-7.80
2017,01,11,06,51,-7.90
2017,01,11,06,52,-8.00
2017,01,11,06,53,-8.00
2017,01,11,06,54,-8.10
2017,01,11,06,55,-8.20
2017,01,11,06,56,-8.20
2017,01,11,06,57,-8.20
2017,01,11,06,58,-8.30
2017,01,11,06,59,-8.30
2017,01,11,07,00,-8.30
2017,01,11,07,01,-8.30
2017,01,11,07,02,-8.30
2017,01,11,07,03,-8.30
2017,01,11,07,04,-8.30
2017,01,11,07,05,-8.30
2017,01,11,07,06,-8.30
2017,01,11,07,07,-8.30
2017,01,11,07,08,-8.30
2017,01,11,07,09,-8.30
2017,01,11,07,10,-8.30
2017,01,11,07,11,-8.20
2017,01,11,07,12,-8.20
2017,01,11,07,13,-8.20
2017,01,11,07,14,-8.20
2017,01,11,07,15,-8.10
2017,01,11,07,16,-8.10
2017,01,11,07,17,-8.10
2017,01,11,07,18,-8.10
2017,01,11,07,19,-8.10
2017,01,11,07,20,-8.10
2017,01,11,07,21,-8.20
2017,01,11,07,22,-8.20
2017,01,11,07,23,-8.20
2017,01,11,07,24,-8.20
2017,01,11,07,25,-8.30
2017,01,11,07,26,-8.30
2017,01,11,07,27,-8.20
2017,01,11,07,28,-8.20
2017,01,11,07,29,-8.20
2017,01,11,07,30,-8.10
2017,01,11,07,31,-8.00
2017,01,11,07,32,-7.90
2017,01,11,07,33,-7.80
2017,01,11,07,34,-7.70
2017,01,11,07,35,-7.60
2017,01,11,07,36,-7.60
2017,01,11,07,37,-7.50
2017,01,11,07,38,-7.50
2017,01,11,07,39,-7.50
2017,01,11,07,40,-7.60
2017,01,11,07,41,-7.70
2017,01,11,07,42,-7.90
2017,01,11,07,43,-8.00
2017,01,11,07,44,-8.10
2017,01,11,07,45,-8.10
2017,01,11,07,46,-8.20
2017,01,11,07,47,-8.20
2017,01,11,07,48,-8.30
2017,01,11,07,49,-8.30
2017,01,11,07,50,-8.40
2017,01,11,07,51,-8.40
2017,01,11,07,52,-8.40
2017,01,11,07,53,-8.40
2017,01,11,07,54,-8.40
2017,01,11,07,55,-8.40
2017,01,11,07,56,-8.40
2017,01,11,07,57,-8.30
2017,01,11,07,58,-8.30
2017,01,11,07,59,-8.30
2017,01,11,08,00,-8.30
2017,01,11,08,01,-8.30
2017,01,11,08,02,-8.30
2017,01,11,08,03,-8.30
2017,01,11,08,04,-8.30
2017,01,11,08,05,-8.30
2017,01,11,08,06,-8.30
2017,01,11,08,07,-8.30
2017,01,11,08,08,-8.40
2017,01,11,08,09,-8.40
2017,01,11,08,10,-8.40
2017,01,11,08,11,-8.40
2017,01,11,08,12,-8.40
2017,01,11,08,13,-8.40
2017,01,11,08,14,-8.40
2017,01,11,08,15,-8.40
2017,01,11,08,16,-8.30
2017,01,11,08,17,-8.30
2017,01,11,08,18,-8.30
2017,01,11,08,19,-8.30
2017,01,11,08,20,-8.30
2017,01,11,08,21,-8.30
2017,01,11,08,22,-8.30
2017,01,11,08,23,-8.30
2017,01,11,08,24,-8.20
2017,01,11,08,25,-8.20
2017,01,11,08,26,-8.20
2017,01,11,08,27,-8.20
2017,01,11,08,28,-8.20
2017,01,11,08,29,-8.30
2017,01,11,08,30,-8.30
2017,01,11,08,31,-8.30
2017,01,11,08,32,-8.30
2017,01,11,08,33,-8.30
2017,01,11,08,34,-8.30
2017,01,11,08,35,-8.40
2017,01,11,08,36,-8.40
2017,01,11,08,37,-8.50
2017,01,11,08,38,-8.50
2017,01,11,08,39,-8.50
2017,01,11,08,40,-8.50
2017,01,11,08,41,-8.60
2017,01,11,08,42,-8.50
2017,01,11,08,43,-8.50
2017,01,11,08,44,-8.50
2017,01,11,08,45,-8.50
2017,01,11,08,46,-8.40
2017,01,11,08,47,-8.40
2017,01,11,08,48,-8.30
2017,01,11,08,49,-8.20
2017,01,11,08,50,-8.20
2017,01,11,08,51,-8.10
2017,01,11,08,52,-8.10
2017,01,11,08,53,-8.10
2017,01,11,08,54,-8.10
2017,01,11,08,55,-8.10
2017,01,11,08,56,-8.20
2017,01,11,08,57,-8.30
2017,01,11,08,58,-8.30
2017,01,11,08,59,-8.30
2017,01,11,09,00,-8.30
2017,01,11,09,01,-8.30
2017,01,11,09,02,-8.30
2017,01,11,09,03,-8.30
2017,01,11,09,04,-8.30
2017,01,11,09,05,-8.20
2017,01,11,09,06,-8.20
2017,01,11,09,07,-8.10
2017,01,11,09,08,-8.10
2017,01,11,09,09,-8.10
2017,01,11,09,10,-8.00
2017,01,11,09,11,-8.00
2017,01,11,09,12,-8.00
2017,01,11,09,13,-8.10
2017,01,11,09,14,-8.10
2017,01,11,09,15,-8.20
2017,01,11,09,16,-8.20
2017,01,11,09,17,-8.20
2017,01,11,09,18,-8.10
2017,01,11,09,19,-8.10
2017,01,11,09,20,-8.00
2017,01,11,09,21,-8.00
2017,01,11,09,22,-7.90
2017,01,11,09,23,-7.90
2017,01,11,09,24,-7.80
2017,01,11,09,25,-7.70
2017,01,11,09,26,-7.70
2017,01,11,09,27,-7.60
2017,01,11,09,28,-7.50
2017,01,11,09,29,-7.40
2017,01,11,09,30,-7.30
2017,01,11,09,31,-7.30
2017,01,11,09,32,-7.10
2017,01,11,09,33,-7.00
2017,01,11,09,34,-6.90
2017,01,11,09,35,-6.80
2017,01,11,09,36,-6.80
2017,01,11,09,37,-6.70
2017,01,11,09,38,-6.70
2017,01,11,09,39,-6.60
2017,01,11,09,40,-6.60
2017,01,11,09,41,-6.60
2017,01,11,09,42,-6.60
2017,01,11,09,43,-6.60
2017,01,11,09,44,-6.60
2017,01,11,09,45,-6.60
2017,01,11,09,46,-6.50
2017,01,11,09,47,-6.50
2017,01,11,09,48,-6.50
2017,01,11,09,49,-6.40
2017,01,11,09,50,-6.40
2017,01,11,09,51,-6.40
2017,01,11,09,52,-6.40
2017,01,11,09,53,-6.40
2017,01,11,09,54,-6.40
2017,01,11,09,55,-6.40
2017,01,11,09,56,-6.40
2017,01,11,09,57,-6.30
2017,01,11,09,58,-6.30
2017,01,11,09,59,-6.20
2017,01,11,10,00,-6.20
2017,01,11,10,01,-6.10
2017,01,11,10,02,-6.10
2017,01,11,10,03,-6.00
2017,01,11,10,04,-6.00
2017,01,11,10,05,-6.00
2017,01,11,10,06,-6.10
2017,01,11,10,07,-6.20
2017,01,11,10,08,-6.20
2017,01,11,10,09,-6.20
2017,01,11,10,10,-6.20
2017,01,11,10,11,-6.10
2017,01,11,10,12,-6.10
2017,01,11,10,13,-6.00
2017,01,11,10,14,-6.00
2017,01,11,10,15,-5.90
2017,01,11,10,16,-5.80
2017,01,11,10,17,-5.80
2017,01,11,10,18,-5.70
2017,01,11,10,19,-5.60
2017,01,11,10,20,-5.50
2017,01,11,10,21,-5.30
2017,01,11,10,22,-5.20
2017,01,11,10,23,-5.10
2017,01,11,10,24,-5.00
2017,01,11,10,25,-4.90
2017,01,11,10,26,-4.90
2017,01,11,10,27,-4.90
2017,01,11,10,28,-4.90
2017,01,11,10,29,-5.10
2017,01,11,10,30,-5.10
2017,01,11,10,31,-5.20
2017,01,11,10,32,-5.20
2017,01,11,10,33,-5.30
2017,01,11,10,34,-5.30
2017,01,11,10,35,-5.20
2017,01,11,10,36,-5.20
2017,01,11,10,37,-5.10
2017,01,11,10,38,-5.00
2017,01,11,10,39,-4.90
2017,01,11,10,40,-4.90
2017,01,11,10,41,-4.80
2017,01,11,10,42,-4.70
2017,01,11,10,43,-4.50
2017,01,11,10,44,-4.40
2017,01,11,10,45,-4.30
2017,01,11,10,46,-4.20
2017,01,11,10,47,-4.20
2017,01,11,10,48,-4.10
2017,01,11,10,49,-4.10
2017,01,11,10,50,-4.10
2017,01,11,10,51,-4.00
2017,01,11,10,52,-3.90
2017,01,11,10,53,-3.80
2017,01,11,10,54,-3.80
2017,01,11,10,55,-3.70
2017,01,11,10,56,-3.60
2017,01,11,10,57,-3.50
2017,01,11,10,58,-3.40
2017,01,11,10,59,-3.40
2017,01,11,11,00,-3.30
2017,01,11,11,01,-3.20
2017,01,11,11,02,-3.10
2017,01,11,11,03,-3.00
2017,01,11,11,04,-2.90
2017,01,11,11,05,-2.80
2017,01,11,11,06,-2.70
2017,01,11,11,07,-2.70
2017,01,11,11,08,-2.60
2017,01,11,11,09,-2.60
2017,01,11,11,10,-2.60
2017,01,11,11,11,-2.50
2017,01,11,11,12,-2.40
2017,01,11,11,13,-2.30
2017,01,11,11,14,-2.30
2017,01,11,11,15,-2.20
2017,01,11,11,16,-2.10
2017,01,11,11,17,-2.00
2017,01,11,11,18,-1.90
2017,01,11,11,19,-1.80
2017,01,11,11,20,-1.70
2017,01,11,11,21,-1.60
2017,01,11,11,22,-1.50
2017,01,11,11,23,-1.50
2017,01,11,11,24,-1.40
2017,01,11,11,25,-1.40
2017,01,11,11,26,-1.30
2017,01,11,11,27,-1.30
2017,01,11,11,28,-1.20
2017,01,11,11,29,-1.20
2017,01,11,11,30,-1.10
2017,01,11,11,31,-1.00
2017,01,11,11,32,-1.00
2017,01,11,11,33,-0.90
2017,01,11,11,34,-0.80
2017,01,11,11,35,-0.80
2017,01,11,11,36,-0.80
2017,01,11,11,37,-0.80
2017,01,11,11,38,-0.70
2017,01,11,11,39,-0.70
2017,01,11,11,40,-0.70
2017,01,11,11,41,-0.70
2017,01,11,11,42,-0.70
2017,01,11,11,43,-0.70
2017,01,11,11,44,-0.70
2017,01,11,11,45,-0.70
2017,01,11,11,46,-0.60
2017,01,11,11,47,-0.50
2017,01,11,11,48,-0.40
2017,01,11,11,49,-0.30
2017,01,11,11,50,-0.20
2017,01,11,11,51,-0.10
2017,01,11,11,52,-0.10
2017,01,11,11,53,0.00
2017,01,11,11,54,0.00
2017,01,11,11,55,0.10
2017,01,11,11,56,0.20
2017,01,11,11,57,0.20
2017,01,11,11,58,0.30
2017,01,11,11,59,0.30
2017,01,11,12,00,0.40
2017,01,11,12,01,0.40
2017,01,11,12,02,0.50
2017,01,11,12,03,0.50
2017,01,11,12,04,0.50
2017,01,11,12,05,0.50
2017,01,11,12,06,0.40
2017,01,11,12,07,0.50
2017,01,11,12,08,0.50
2017,01,11,12,09,0.60
2017,01,11,12,10,0.60
2017,01,11,12,11,0.60
2017,01,11,12,12,0.70
2017,01,11,12,13,0.70
2017,01,11,12,14,0.80
2017,01,11,12,15,0.80
2017,01,11,12,16,0.90
2017,01,11,12,17,0.90
2017,01,11,12,18,0.90
2017,01,11,12,19,0.90
2017,01,11,12,20,0.90
2017,01,11,12,21,1.00
2017,01,11,12,22,1.00
2017,01,11,12,23,1.10
2017,01,11,12,24,1.20
2017,01,11,12,25,1.20
2017,01,11,12,26,1.30
2017,01,11,12,27,1.30
2017,01,11,12,28,1.30
2017,01,11,12,29,1.30
2017,01,11,12,30,1.30
2017,01,11,12,31,1.30
2017,01,11,12,32,1.20
2017,01,11,12,33,1.20
2017,01,11,12,34,1.20
2017,01,11,12,35,1.20
2017,01,11,12,36,1.30
2017,01,11,12,37,1.30
2017,01,11,12,38,1.30
2017,01,11,12,39,1.30
2017,01,11,12,40,1.30
2017,01,11,12,41,1.30
2017,01,11,12,42,1.30
2017,01,11,12,43,1.30
2017,01,11,12,44,1.30
2017,01,11,12,45,1.30
2017,01,11,12,46,1.30
2017,01,11,12,47,1.30
2017,01,11,12,48,1.30
2017,01,11,12,49,1.40
2017,01,11,12,50,1.40
2017,01,11,12,51,1.30
2017,01,11,12,52,1.30
2017,01,11,12,53,1.30
2017,01,11,12,54,1.30
2017,01,11,12,55,1.30
2017,01,11,12,56,1.30
2017,01,11,12,57,1.30
2017,01,11,12,58,1.30
2017,01,11,12,59,1.30
2017,01,11,13,00,1.30
2017,01,11,13,01,1.30
2017,01,11,13,02,1.30
2017,01,11,13,03,1.30
2017,01,11,13,04,1.30
2017,01,11,13,05,1.30
2017,01,11,13,06,1.30
2017,01,11,13,07,1.30
2017,01,11,13,08,1.30
2017,01,11,13,09,1.40
2017,01,11,13,10,1.40
2017,01,11,13,11,1.40
2017,01,11,13,12,1.40
2017,01,11,13,13,1.40
2017,01,11,13,14,1.40
2017,01,11,13,15,1.40
2017,01,11,13,16,1.50
2017,01,11,13,17,1.50
2017,01,11,13,18,1.60
2017,01,11,13,19,1.60
2017,01,11,13,20,1.60
2017,01,11,13,21,1.70
2017,01,11,13,22,1.70
2017,01,11,13,23,1.70
2017,01,11,13,24,1.70
2017,01,11,13,25,1.80
2017,01,11,13,26,1.80
2017,01,11,13,27,1.80
2017,01,11,13,28,1.80
2017,01,11,13,29,1.80
2017,01,11,13,30,1.90
2017,01,11,13,31,1.90
2017,01,11,13,32,1.90
2017,01,11,13,33,1.90
2017,01,11,13,34,1.90
2017,01,11,13,35,1.90
2017,01,11,13,36,1.90
2017,01,11,13,37,1.80
2017,01,11,13,38,1.80
2017,01,11,13,39,1.80
2017,01,11,13,40,1.80
2017,01,11,13,41,1.80
2017,01,11,13,42,1.80
2017,01,11,13,43,1.80
2017,01,11,13,44,1.80
2017,01,11,13,45,1.80
2017,01,11,13,46,1.90
2017,01,11,13,47,1.90
2017,01,11,13,48,1.90
2017,01,11,13,49,1.90
2017,01,11,13,50,1.90
2017,01,11,13,51,1.90
2017,01,11,13,52,1.90
2017,01,11,13,53,1.90
2017,01,11,13,54,1.90
2017,01,11,13,55,1.90
2017,01,11,13,56,2.00
2017,01,11,13,57,2.00
2017,01,11,13,58,2.10
2017,01,11,13,59,2.10
2017,01,11,14,00,2.10
2017,01,11,14,01,2.10
2017,01,11,14,02,2.10
2017,01,11,14,03,2.10
2017,01,11,14,04,2.10
2017,01,11,14,05,2.10
2017,01,11,14,06,2.20
2017,01,11,14,07,2.20
2017,01,11,14,08,2.20
2017,01,11,14,09,2.30
2017,01,11,14,10,2.30
2017,01,11,14,11,2.30
2017,01,11,14,12,2.30
2017,01,11,14,13,2.30
2017,01,11,14,14,2.30
2017,01,11,14,15,2.20
2017,01,11,14,16,2.20
2017,01,11,14,17,2.20
2017,01,11,14,18,2.10
2017,01,11,14,19,2.10
2017,01,11,14,20,2.10
2017,01,11,14,21,2.10
2017,01,11,14,22,2.10
2017,01,11,14,23,2.10
2017,01,11,14,24,2.20
2017,01,11,14,25,2.20
2017,01,11,14,26,2.30
2017,01,11,14,27,2.30
2017,01,11,14,28,2.40
2017,01,11,14,29,2.50
2017,01,11,14,30,2.60
2017,01,11,14,31,2.60
2017,01,11,14,32,2.70
2017,01,11,14,33,2.70
2017,01,11,14,34,2.80
2017,01,11,14,35,2.90
2017,01,11,14,36,3.00
2017,01,11,14,37,3.00
2017,01,11,14,38,3.10
2017,01,11,14,39,3.10
2017,01,11,14,40,3.10
2017,01,11,14,41,3.20
2017,01,11,14,42,3.20
2017,01,11,14,43,3.20
2017,01,11,14,44,3.20
2017,01,11,14,45,3.20
2017,01,11,14,46,3.30
2017,01,11,14,47,3.30
2017,01,11,14,48,3.30
2017,01,11,14,49,3.30
2017,01,11,14,50,3.30
2017,01,11,14,51,3.40
2017,01,11,14,52,3.40
2017,01,11,14,53,3.40
2017,01,11,14,54,3.40
2017,01,11,14,55,3.30
2017,01,11,14,56,3.30
2017,01,11,14,57,3.20
2017,01,11,14,58,3.20
2017,01,11,14,59,3.10
2017,01,11,15,00,3.10
2017,01,11,15,01,3.00
2017,01,11,15,02,3.00
2017,01,11,15,03,2.90
2017,01,11,15,04,2.90
2017,01,11,15,05,2.90
2017,01,11,15,06,2.80
2017,01,11,15,07,2.80
2017,01,11,15,08,2.80
2017,01,11,15,09,2.80
2017,01,11,15,10,2.80
2017,01,11,15,11,2.70
2017,01,11,15,12,2.70
2017,01,11,15,13,2.70
2017,01,11,15,14,2.70
2017,01,11,15,15,2.70
2017,01,11,15,16,2.70
2017,01,11,15,17,2.80
2017,01,11,15,18,2.80
2017,01,11,15,19,2.80
2017,01,11,15,20,2.80
2017,01,11,15,21,2.80
2017,01,11,15,22,2.80
2017,01,11,15,23,2.80
2017,01,11,15,24,2.80
2017,01,11,15,25,2.80
2017,01,11,15,26,2.80
2017,01,11,15,27,2.80
2017,01,11,15,28,2.80
2017,01,11,15,29,2.80
2017,01,11,15,30,2.80
2017,01,11,15,31,2.80
2017,01,11,15,32,2.80
2017,01,11,15,33,2.80
2017,01,11,15,34,2.80
2017,01,11,15,35,2.80
2017,01,11,15,36,2.80
2017,01,11,15,37,2.80
2017,01,11,15,38,2.80
2017,01,11,15,39,2.80
2017,01,11,15,40,2.80
2017,01,11,15,41,2.70
2017,01,11,15,42,2.80
2017,01,11,15,43,2.80
2017,01,11,15,44,2.80
2017,01,11,15,45,2.80
2017,01,11,15,46,2.80
2017,01,11,15,47,2.80
2017,01,11,15,48,2.80
2017,01,11,15,49,2.90
2017,01,11,15,50,2.90
2017,01,11,15,51,2.90
2017,01,11,15,52,2.90
2017,01,11,15,53,2.90
2017,01,11,15,54,2.90
2017,01,11,15,55,2.90
2017,01,11,15,56,2.90
2017,01,11,15,57,2.90
2017,01,11,15,58,2.80
2017,01,11,15,59,2.80
2017,01,11,16,00,2.80
2017,01,11,16,01,2.80
2017,01,11,16,02,2.80
2017,01,11,16,03,2.80
2017,01,11,16,04,2.80
2017,01,11,16,05,2.70
2017,01,11,16,06,2.70
2017,01,11,16,07,2.60
2017,01,11,16,08,2.50
2017,01,11,16,09,2.50
2017,01,11,16,10,2.40
2017,01,11,16,11,2.30
2017,01,11,16,12,2.30
2017,01,11,16,13,2.20
2017,01,11,16,14,2.20
2017,01,11,16,15,2.10
2017,01,11,16,16,2.00
2017,01,11,16,17,2.00
2017,01,11,16,18,1.90
2017,01,11,16,19,1.80
2017,01,11,16,20,1.80
2017,01,11,16,21,1.70
2017,01,11,16,22,1.60
2017,01,11,16,23,1.60
2017,01,11,16,24,1.50
2017,01,11,16,25,1.40
2017,01,11,16,26,1.30
2017,01,11,16,27,1.30
2017,01,11,16,28,1.20
2017,01,11,16,29,1.10
2017,01,11,16,30,1.10
2017,01,11,16,31,1.00
2017,01,11,16,32,0.90
2017,01,11,16,33,0.90
2017,01,11,16,34,0.80
2017,01,11,16,35,0.70
2017,01,11,16,36,0.60
2017,01,11,16,37,0.50
2017,01,11,16,38,0.40
2017,01,11,16,39,0.30
2017,01,11,16,40,0.20
2017,01,11,16,41,0.00
2017,01,11,16,42,-0.10
2017,01,11,16,43,-0.30
2017,01,11,16,44,-0.40
2017,01,11,16,45,-0.50
2017,01,11,16,46,-0.70
2017,01,11,16,47,-0.80
2017,01,11,16,48,-0.90
2017,01,11,16,49,-1.00
2017,01,11,16,50,-1.10
2017,01,11,16,51,-1.10
2017,01,11,16,52,-1.20
2017,01,11,16,53,-1.20
2017,01,11,16,54,-1.30
2017,01,11,16,55,-1.30
2017,01,11,16,56,-1.30
2017,01,11,16,57,-1.40
2017,01,11,16,58,-1.40
2017,01,11,16,59,-1.40
2017,01,11,17,00,-1.40
2017,01,11,17,01,-1.40
2017,01,11,17,02,-1.50
2017,01,11,17,03,-1.50
2017,01,11,17,04,-1.50
2017,01,11,17,05,-1.50
2017,01,11,17,06,-1.50
2017,01,11,17,07,-1.60
2017,01,11,17,08,-1.60
2017,01,11,17,09,-1.60
2017,01,11,17,10,-1.60
2017,01,11,17,11,-1.60
2017,01,11,17,12,-1.60
2017,01,11,17,13,-1.70
2017,01,11,17,14,-1.70
2017,01,11,17,15,-1.70
2017,01,11,17,16,-1.70
2017,01,11,17,17,-1.70
2017,01,11,17,18,-1.80
2017,01,11,17,19,-1.80
2017,01,11,17,20,-1.80
2017,01,11,17,21,-1.90
2017,01,11,17,22,-2.00
2017,01,11,17,23,-2.00
2017,01,11,17,24,-2.10
2017,01,11,17,25,-2.20
2017,01,11,17,26,-2.20
2017,01,11,17,27,-2.30
2017,01,11,17,28,-2.40
2017,01,11,17,29,-2.40
2017,01,11,17,30,-2.40
2017,01,11,17,31,-2.50
2017,01,11,17,32,-2.60